Regional Weather Roundup
Issued by NWS Charleston, SC

Current Version | Previous Version | Graphics & Text | Print | Product List | Glossary On
Versions: 1 2 3 4 5 6 7 8 9 10 11 12 13 14 15 16 17 18 19 20 21 22 23 24 25 26 27 28 29 30 31 32 33 34 35 36 37 38 39 40 41 42 43 44 45 46 47 48 49 50
876 ASUS42 KCHS 210812 RWRCHS REGIONAL WEATHER ROUNDUP NATIONAL WEATHER SERVICE CHARLESTON SC 300 AM EST TUE NOV 21 2017 NOTE: "FAIR" INDICATES FEW OR NO CLOUDS BELOW 12,000 FEET WITH NO SIGNIFICANT WEATHER AND/OR OBSTRUCTIONS TO VISIBILITY. NOT ALL STATIONS ARE QUALITY CONTROLLED. USE DATA WITH CAUTION... ESPECIALLY DEWPOINT OBSERVATIONS. SCZ027-030-031-034>040-042>050-210900- ...SOUTHEAST SOUTH CAROLINA... CITY SKY/WX TMP DP RH WIND PRES REMARKS N CHARLESTON PTCLDY 43 41 93 N5 30.19S WATERFRONT PRK NOT AVBL JOHNS ISLAND FAIR 48 46 93 CALM 30.18F PINOPOLIS N/A 52 45 76 E5 30.13F MONCKS CORNER FAIR 39 37 93 CALM 30.20S SUMMERVILLE FAIR 36 36 100 CALM 30.21S BEAUFORT MCAS MOCLDY 50 47 89 N6 30.18F BEAUFORT ARPT PTSUNNY 52 46 82 NE8 30.17F HILTON HEAD IS MOCLDY 55 52 88 NE8 30.18S WALTERBORO MOSUNNY 41 37 87 CALM 30.21R ALLENDALE FAIR 43 39 87 CALM 30.19S ...SOUTHERN MIDLANDS AND PEE DEE... CITY SKY/WX TMP DP RH WIND PRES REMARKS GEORGETOWN FAIR 39 37 93 CALM 30.21S KINGSTREE FAIR 32 32 100 CALM 30.23S ORANGEBURG CLEAR 38 35 89 CALM 30.22S BARNWELL N/A 41 37 87 CALM 30.21S AIKEN FAIR 36 32 87 CALM 30.24S MANNING FAIR 34 34 100 MISG 30.22S COLUMBIA PTCLDY 35 33 92 S5 30.22S WCI 31 SUMTER CLOUDY 33 30 88 NE3 30.21S FLORENCE CLOUDY 35 32 88 N3 30.25S MYRTLE BEACH CLEAR 39 38 96 NW3 30.23F N MYRTLE BEACH CLEAR 39 38 96 CALM 30.22F $$ GAZ063-065-086>088-099>101-113>116-118-119-134>141-150-210900- ...SOUTHEAST GEORGIA... CITY SKY/WX TMP DP RH WIND PRES REMARKS SAVANNAH ARPT CLOUDY 53 48 83 N3 30.16F HUNTER AAF MOCLDY 54 48 82 CALM 30.13F FORT STEWART CLOUDY 54 48 80 CALM 30.13F STATESBORO CLOUDY 49 40 72 CALM 30.18S SYLVANIA CLOUDY 50 44 80 E5 30.19F CLAXTON CLOUDY 53 47 81 NE6 30.16F ...CSRA...CENTRAL AND FAR SOUTHEAST GEORGIA... CITY SKY/WX TMP DP RH WIND PRES REMARKS THOMSON CLOUDY 41 37 87 SE3 30.24F AUGUSTA-BUSH PTCLDY 39 37 92 CALM 30.20F AUGUSTA-DANIEL PTCLDY 47 36 65 E6 30.20F SWAINSBORO CLOUDY 50 41 71 E5 30.17F VIDALIA CLOUDY 52 46 82 NE6 30.15F EASTMAN PTSUNNY 50 40 69 CALM 30.17F HAZLEHURST PTSUNNY 54 43 67 E3 30.13F ALMA MOCLDY 54 50 86 E3 30.13F WAYCROSS CLOUDY 55 52 90 NE3 30.12F JESUP CLOUDY 57 52 82 CALM 30.14F BAXLEY CLOUDY 52 52 100 E7 30.13F BRUNSWICK MOCLDY 54 50 87 CALM 30.13F SAINT SIMONS MOCLDY 68 58 70 E9 30.12F $$ SCZ027-028-034-036>038-045-046-048>050-GAZ119-141-210900- ...LAKE AND SUPPLEMENTAL COASTAL OBSERVATIONS... STATION/POSITION TIME TEMP WIND PRES WAVE SWELL AIR SEA DIR/SP/G HT/PER HT/PER/DIR (UTC) (F) (DEG/KT/KT) (MB) (FT/S) (FT/S/D) WINYAH BAY NOT AVBL LAKE MURRAY 0720 47 CALM / 3 1022.7S ACE BASIN NERRS 0645 48 CALM 1022.0 FORT PULASKI 0748 57 61 50/ 9/ 11 1021.5F SAPELO ISLAND 0700 64 60/ 3 1020.0 $$ ANZ835-935-AMZ111-154-330-350-352-354-370-450-454-472-210900- ...C-MAN AND BUOY OBSERVATIONS... STATION/POSITION TIME TEMP WIND PRES WAVE SWELL AIR SEA DIR/SP/G HT/PER HT/PER/DIR (UTC) (F) (DEG/KT/KT) (MB) (FT/S) (FT/S/D) BUOY 41004 0750 69 73 150/ 12/ 16 1021.4F 3/ 4 2/ 90/ 8 BUOY 41008 0750 69 67 120/ 12/ 14 1020.1F 4/ 5 2/100/ 7 FOLLY BEACH CMAN 0700 53 360/ 7/ 8 1022.5F CAPERS NEARSHORE 0708 58 61 50/ 10/ 16 1021.8F FRIPP NEARSHORE 0708 56 61 30/ 12/ 23 1020.9F STATION/POSITION TIME TEMP WIND PRES WAVE SWELL AIR SEA DIR/SP/G HT/PER HT/PER/DIR (UTC) (F) (DEG/KT/KT) (MB) (FT/S) (FT/S/D) 5E ST. MARYS GA 0730 67 N/A 4/ 5 FRYING PAN BUOY 0750 64 69 40/ 6/ 8 1022.6F 2/ 8 2/ 90/ 8 BUOY 41025 0800 60 75 330/ 6/ 8 1024.7 CAPE LOOKOUT NC 0700 350/ 4/ 5 1024.8F BUOY 41002 0750 69 76 100/ 14/ 19 1022.7F 5/ 9 3/ 10/ 9 BUOY 41010 NOT AVBL ST AUGUSTINE FL 0800 71 67 140/ 13/ 14 1019.0F $$

USA.gov is the U.S. government's official web portal to all federal, state and local government web resources and services.